• In Netherlands
  • List of Countries
  • For 7 days
  • Water Temperature
  • Satellite Maps
  • Weather Map
  • Weather Widgets
  • user-avatar
    Login

    Hourly Weather Megri

    Today, 23 May, Tuesday

    Time Temperature Precipitation Wind Pressure Humidity
    00:00 +10°C° 0 mm 2 mps 620 mmHg 49%
    01:00 +10°C° 0 mm 2 mps 620 mmHg 51%
    02:00 +9°C° 0 mm 2 mps 620 mmHg 53%
    03:00 +9°C° 0 mm 3 mps 620 mmHg 54%
    04:00 +10°C° 0 mm 2 mps 620 mmHg 54%
    05:00 +12°C° 0 mm 2 mps 621 mmHg 54%
    06:00 +12°C° 0 mm 2 mps 621 mmHg 55%
    07:00 +14°C° 0 mm 2 mps 622 mmHg 48%
    08:00 +16°C° 0 mm 3 mps 622 mmHg 41%
    09:00 +18°C° 0 mm 3 mps 623 mmHg 33%
    10:00 +19°C° 0 mm 4 mps 623 mmHg 30%
    11:00 +20°C° 0 mm 5 mps 623 mmHg 27%
    12:00 +22°C° 0 mm 6 mps 623 mmHg 24%
    13:00 +22°C° 0 mm 6 mps 623 mmHg 24%
    14:00 +22°C° 0 mm 6 mps 623 mmHg 24%
    15:00 +22°C° 0 mm 6 mps 623 mmHg 24%
    16:00 +21°C° 0 mm 6 mps 622 mmHg 28%
    17:00 +20°C° 0 mm 5 mps 622 mmHg 31%
    18:00 +19°C° 0 mm 5 mps 622 mmHg 35%
    19:00 +17°C° 0.1 mm 4 mps 622 mmHg 43%
    20:00 +15°C° 0.1 mm 2 mps 621 mmHg 51%
    21:00 +13°C° 0.1 mm 1 mps 621 mmHg 59%
    22:00 +12°C° 0 mm 1 mps 621 mmHg 59%
    23:00 +12°C° 0 mm 1 mps 621 mmHg 58%

    Tomorrow, 24 May, Wednesday

    Time Temperature Precipitation Wind Pressure Humidity
    00:00 +12°C° 0 mm 1 mps 620 mmHg 58%
    01:00 +12°C° 0.1 mm 2 mps 620 mmHg 57%
    02:00 +10°C° 0.1 mm 2 mps 620 mmHg 56%
    03:00 +10°C° 0.1 mm 2 mps 620 mmHg 54%
    04:00 +12°C° 0.1 mm 1 mps 620 mmHg 52%
    05:00 +13°C° 0.1 mm 1 mps 621 mmHg 50%
    06:00 +14°C° 0.1 mm 1 mps 621 mmHg 49%
    07:00 +16°C° 0.1 mm 2 mps 621 mmHg 42%
    08:00 +17°C° 0.1 mm 2 mps 622 mmHg 36%
    09:00 +19°C° 0.1 mm 3 mps 622 mmHg 29%
    10:00 +20°C° 0.2 mm 4 mps 622 mmHg 28%
    11:00 +21°C° 0.2 mm 5 mps 622 mmHg 26%
    12:00 +22°C° 0.2 mm 7 mps 622 mmHg 24%
    13:00 +23°C° 0.1 mm 6 mps 622 mmHg 23%
    14:00 +23°C° 0.1 mm 6 mps 622 mmHg 22%
    15:00 +23°C° 0.1 mm 6 mps 622 mmHg 21%
    16:00 +22°C° 0.1 mm 5 mps 622 mmHg 26%
    17:00 +21°C° 0.1 mm 4 mps 621 mmHg 31%
    18:00 +20°C° 0.1 mm 3 mps 621 mmHg 36%
    19:00 +17°C° 0.1 mm 3 mps 621 mmHg 47%
    20:00 +14°C° 0.1 mm 3 mps 621 mmHg 58%
    21:00 +12°C° 0.1 mm 3 mps 621 mmHg 69%
    22:00 +12°C° 0.1 mm 2 mps 621 mmHg 73%
    23:00 +12°C° 0.1 mm 2 mps 621 mmHg 77%

    Day after tomorrow, 25 May, Thursday

    Time Temperature Precipitation Wind Pressure Humidity
    00:00 +10°C° 0.1 mm 2 mps 621 mmHg 81%
    01:00 +10°C° 0 mm 2 mps 621 mmHg 82%
    02:00 +10°C° 0 mm 1 mps 621 mmHg 83%
    03:00 +10°C° 0 mm 1 mps 621 mmHg 85%
    04:00 +11°C° 0 mm 1 mps 621 mmHg 81%
    05:00 +11°C° 0 mm 1 mps 622 mmHg 77%
    06:00 +12°C° 0 mm 1 mps 622 mmHg 74%
    07:00 +14°C° 0 mm 1 mps 623 mmHg 63%
    08:00 +15°C° 0 mm 1 mps 623 mmHg 52%
    09:00 +18°C° 0 mm 1 mps 624 mmHg 42%
    10:00 +18°C° 0 mm 2 mps 624 mmHg 38%
    11:00 +19°C° 0 mm 3 mps 624 mmHg 33%
    12:00 +21°C° 0 mm 3 mps 625 mmHg 29%
    13:00 +21°C° 0 mm 3 mps 624 mmHg 28%
    14:00 +21°C° 0 mm 3 mps 624 mmHg 27%
    15:00 +22°C° 0 mm 3 mps 624 mmHg 25%
    16:00 +21°C° 0 mm 2 mps 624 mmHg 28%
    17:00 +20°C° 0 mm 2 mps 624 mmHg 31%
    18:00 +20°C° 0 mm 1 mps 624 mmHg 34%
    19:00 +18°C° 0 mm 1 mps 623 mmHg 41%
    20:00 +15°C° 0 mm 1 mps 623 mmHg 49%
    21:00 +13°C° 0 mm 2 mps 623 mmHg 56%
    22:00 +13°C° 0 mm 1 mps 623 mmHg 60%
    23:00 +12°C° 0 mm 1 mps 622 mmHg 65%

    26 May, Friday

    Time Temperature Precipitation Wind Pressure Humidity
    00:00 +11°C° 0 mm 1 mps 622 mmHg 69%
    01:00 +11°C° 0 mm 1 mps 622 mmHg 71%
    02:00 +10°C° 0 mm 1 mps 622 mmHg 72%
    03:00 +10°C° 0 mm 1 mps 622 mmHg 74%
    04:00 +11°C° 0 mm 1 mps 622 mmHg 70%
    05:00 +12°C° 0 mm 1 mps 623 mmHg 66%
    06:00 +13°C° 0 mm 1 mps 623 mmHg 61%
    07:00 +15°C° 0 mm 1 mps 624 mmHg 51%
    08:00 +18°C° 0 mm 1 mps 624 mmHg 42%
    09:00 +20°C° 0 mm 1 mps 625 mmHg 32%
    10:00 +20°C° 0 mm 2 mps 625 mmHg 28%
    11:00 +21°C° 0 mm 3 mps 625 mmHg 25%
    12:00 +24°C° 0 mm 3 mps 625 mmHg 21%
    13:00 +24°C° 0 mm 3 mps 625 mmHg 20%
    14:00 +24°C° 0 mm 3 mps 624 mmHg 19%
    15:00 +25°C° 0 mm 3 mps 624 mmHg 18%
    16:00 +24°C° 0 mm 2 mps 624 mmHg 21%
    17:00 +23°C° 0 mm 2 mps 624 mmHg 24%
    18:00 +23°C° 0 mm 1 mps 623 mmHg 26%
    19:00 +20°C° 0 mm 1 mps 623 mmHg 33%
    20:00 +18°C° 0 mm 1 mps 623 mmHg 39%
    21:00 +15°C° 0 mm 2 mps 622 mmHg 45%
    22:00 +14°C° 0 mm 1 mps 622 mmHg 50%
    23:00 +13°C° 0 mm 1 mps 622 mmHg 54%

    27 May, Saturday

    Time Temperature Precipitation Wind Pressure Humidity
    00:00 +12°C° 0 mm 1 mps 621 mmHg 58%
    01:00 +12°C° 0 mm 1 mps 621 mmHg 60%
    02:00 +12°C° 0 mm 1 mps 621 mmHg 62%
    03:00 +11°C° 0 mm 1 mps 620 mmHg 64%
    04:00 +13°C° 0 mm 1 mps 621 mmHg 61%
    05:00 +14°C° 0 mm 1 mps 622 mmHg 58%
    06:00 +15°C° 0 mm 1 mps 622 mmHg 55%
    07:00 +18°C° 0.1 mm 1 mps 623 mmHg 47%
    08:00 +20°C° 0.1 mm 1 mps 623 mmHg 38%
    09:00 +23°C° 0.1 mm 2 mps 623 mmHg 29%
    10:00 +24°C° 0 mm 3 mps 623 mmHg 26%
    11:00 +26°C° 0 mm 5 mps 623 mmHg 23%
    12:00 +27°C° 0 mm 7 mps 623 mmHg 21%
    13:00 +27°C° 0 mm 7 mps 622 mmHg 20%
    14:00 +28°C° 0 mm 8 mps 622 mmHg 19%
    15:00 +28°C° 0 mm 8 mps 622 mmHg 18%
    16:00 +27°C° 0 mm 7 mps 621 mmHg 20%
    17:00 +26°C° 0 mm 6 mps 621 mmHg 23%
    18:00 +23°C° 0 mm 6 mps 621 mmHg 26%
    19:00 +21°C° 0 mm 4 mps 621 mmHg 31%
    20:00 +18°C° 0 mm 3 mps 620 mmHg 37%
    21:00 +16°C° 0 mm 2 mps 620 mmHg 42%
    22:00 +15°C° 0 mm 2 mps 620 mmHg 45%
    23:00 +14°C° 0 mm 2 mps 620 mmHg 47%

    28 May, Sunday

    Time Temperature Precipitation Wind Pressure Humidity
    00:00 +14°C° 0 mm 2 mps 620 mmHg 50%
    01:00 +13°C° 0 mm 2 mps 620 mmHg 50%
    02:00 +13°C° 0 mm 2 mps 620 mmHg 50%
    03:00 +12°C° 0 mm 2 mps 620 mmHg 50%
    04:00 +13°C° 0 mm 2 mps 620 mmHg 49%
    05:00 +14°C° 0 mm 2 mps 621 mmHg 49%
    06:00 +14°C° 0 mm 2 mps 622 mmHg 48%
    07:00 +16°C° 0 mm 3 mps 622 mmHg 41%
    08:00 +18°C° 0 mm 3 mps 622 mmHg 35%
    09:00 +20°C° 0 mm 4 mps 623 mmHg 28%
    10:00 +21°C° 0 mm 5 mps 623 mmHg 26%
    11:00 +22°C° 0 mm 5 mps 623 mmHg 23%
    12:00 +23°C° 0 mm 6 mps 623 mmHg 20%
    13:00 +23°C° 0 mm 5 mps 623 mmHg 20%
    14:00 +25°C° 0 mm 5 mps 623 mmHg 19%
    15:00 +25°C° 0 mm 5 mps 623 mmHg 19%
    16:00 +23°C° 0 mm 4 mps 622 mmHg 20%
    17:00 +24°C° 0 mm 3 mps 622 mmHg 22%
    18:00 +23°C° 0 mm 2 mps 622 mmHg 24%
    19:00 +19°C° 0 mm 2 mps 622 mmHg 28%
    20:00 +17°C° 0 mm 2 mps 621 mmHg 31%
    21:00 +15°C° 0 mm 2 mps 621 mmHg 35%
    22:00 +14°C° 0 mm 1 mps 621 mmHg 37%
    23:00 +13°C° 0 mm 1 mps 621 mmHg 39%
    Show more